• In Netherlands
  • List of Countries
  • For 7 days
  • Water Temperature
  • Satellite Maps
  • Weather Map
  • Weather Widgets
  • user-avatar
    Login

    Hourly Weather Artashat

    Today, 21 September, Thursday

    Time Temperature Precipitation Wind Pressure Humidity
    00:00 +16°C° 0 mm 1 mps 605 mmHg 27%
    01:00 +15°C° 0 mm 1 mps 605 mmHg 28%
    02:00 +15°C° 0 mm 1 mps 605 mmHg 29%
    03:00 +16°C° 0 mm 1 mps 605 mmHg 29%
    04:00 +15°C° 0 mm 1 mps 605 mmHg 30%
    05:00 +15°C° 0 mm 1 mps 605 mmHg 31%
    06:00 +15°C° 0 mm 1 mps 605 mmHg 32%
    07:00 +18°C° 0 mm 1 mps 606 mmHg 29%
    08:00 +20°C° 0 mm 1 mps 606 mmHg 26%
    09:00 +23°C° 0 mm 2 mps 607 mmHg 23%
    10:00 +24°C° 0 mm 2 mps 607 mmHg 22%
    11:00 +25°C° 0 mm 2 mps 607 mmHg 20%
    12:00 +26°C° 0 mm 2 mps 608 mmHg 19%
    13:00 +26°C° 0 mm 2 mps 607 mmHg 18%
    14:00 +27°C° 0 mm 2 mps 607 mmHg 17%
    15:00 +27°C° 0 mm 2 mps 607 mmHg 17%
    16:00 +25°C° 0 mm 2 mps 606 mmHg 19%
    17:00 +24°C° 0 mm 2 mps 606 mmHg 21%
    18:00 +23°C° 0 mm 2 mps 605 mmHg 23%
    19:00 +21°C° 0 mm 2 mps 605 mmHg 25%
    20:00 +20°C° 0 mm 2 mps 605 mmHg 27%
    21:00 +20°C° 0 mm 1 mps 605 mmHg 29%
    22:00 +20°C° 0 mm 1 mps 605 mmHg 30%
    23:00 +19°C° 0 mm 1 mps 605 mmHg 32%

    Tomorrow, 22 September, Friday

    Time Temperature Precipitation Wind Pressure Humidity
    00:00 +18°C° 0 mm 1 mps 604 mmHg 33%
    01:00 +16°C° 0 mm 1 mps 604 mmHg 35%
    02:00 +16°C° 0 mm 1 mps 604 mmHg 36%
    03:00 +15°C° 0 mm 1 mps 603 mmHg 37%
    04:00 +15°C° 0 mm 1 mps 603 mmHg 38%
    05:00 +14°C° 0 mm 1 mps 603 mmHg 38%
    06:00 +14°C° 0 mm 1 mps 603 mmHg 39%
    07:00 +16°C° 0 mm 1 mps 603 mmHg 34%
    08:00 +19°C° 0 mm 2 mps 604 mmHg 29%
    09:00 +21°C° 0 mm 2 mps 605 mmHg 24%
    10:00 +23°C° 0 mm 2 mps 605 mmHg 22%
    11:00 +25°C° 0 mm 3 mps 606 mmHg 20%
    12:00 +26°C° 0 mm 3 mps 606 mmHg 18%
    13:00 +26°C° 0 mm 3 mps 605 mmHg 18%
    14:00 +26°C° 0 mm 3 mps 605 mmHg 18%
    15:00 +27°C° 0 mm 3 mps 605 mmHg 17%
    16:00 +25°C° 0 mm 2 mps 604 mmHg 20%
    17:00 +24°C° 0 mm 2 mps 604 mmHg 22%
    18:00 +21°C° 0 mm 2 mps 603 mmHg 25%
    19:00 +20°C° 0 mm 2 mps 603 mmHg 28%
    20:00 +19°C° 0 mm 2 mps 603 mmHg 31%
    21:00 +18°C° 0 mm 2 mps 603 mmHg 34%
    22:00 +18°C° 0 mm 1 mps 603 mmHg 36%
    23:00 +16°C° 0 mm 1 mps 603 mmHg 38%

    Day after tomorrow, 23 September, Saturday

    Time Temperature Precipitation Wind Pressure Humidity
    00:00 +16°C° 0 mm 1 mps 603 mmHg 40%
    01:00 +15°C° 0 mm 1 mps 603 mmHg 42%
    02:00 +15°C° 0 mm 1 mps 603 mmHg 44%
    03:00 +14°C° 0 mm 1 mps 603 mmHg 45%
    04:00 +14°C° 0 mm 1 mps 603 mmHg 48%
    05:00 +13°C° 0 mm 1 mps 603 mmHg 50%
    06:00 +12°C° 0 mm 1 mps 603 mmHg 52%
    07:00 +15°C° 0 mm 1 mps 604 mmHg 45%
    08:00 +18°C° 0 mm 1 mps 605 mmHg 38%
    09:00 +21°C° 0 mm 1 mps 606 mmHg 30%
    10:00 +21°C° 0 mm 2 mps 606 mmHg 28%
    11:00 +23°C° 0 mm 2 mps 606 mmHg 25%
    12:00 +24°C° 0 mm 2 mps 606 mmHg 22%
    13:00 +24°C° 0 mm 2 mps 606 mmHg 21%
    14:00 +25°C° 0 mm 3 mps 606 mmHg 20%
    15:00 +25°C° 0 mm 3 mps 606 mmHg 19%
    16:00 +23°C° 0 mm 2 mps 605 mmHg 22%
    17:00 +21°C° 0 mm 2 mps 605 mmHg 25%
    18:00 +20°C° 0 mm 1 mps 604 mmHg 28%
    19:00 +19°C° 0 mm 1 mps 604 mmHg 31%
    20:00 +18°C° 0 mm 1 mps 605 mmHg 33%
    21:00 +16°C° 0 mm 1 mps 605 mmHg 35%
    22:00 +16°C° 0 mm 1 mps 605 mmHg 36%
    23:00 +15°C° 0 mm 1 mps 605 mmHg 37%

    24 September, Sunday

    Time Temperature Precipitation Wind Pressure Humidity
    00:00 +14°C° 0 mm 1 mps 605 mmHg 38%
    01:00 +14°C° 0 mm 1 mps 605 mmHg 40%
    02:00 +13°C° 0 mm 1 mps 604 mmHg 42%
    03:00 +13°C° 0 mm 2 mps 604 mmHg 43%
    04:00 +12°C° 0 mm 2 mps 604 mmHg 46%
    05:00 +12°C° 0 mm 2 mps 604 mmHg 50%
    06:00 +10°C° 0 mm 2 mps 604 mmHg 53%
    07:00 +13°C° 0 mm 2 mps 605 mmHg 48%
    08:00 +16°C° 0 mm 2 mps 606 mmHg 42%
    09:00 +18°C° 0 mm 2 mps 607 mmHg 37%
    10:00 +19°C° 0 mm 2 mps 607 mmHg 34%
    11:00 +20°C° 0 mm 2 mps 607 mmHg 30%
    12:00 +21°C° 0 mm 2 mps 607 mmHg 27%
    13:00 +23°C° 0 mm 2 mps 607 mmHg 25%
    14:00 +23°C° 0 mm 2 mps 607 mmHg 24%
    15:00 +24°C° 0 mm 2 mps 607 mmHg 22%
    16:00 +21°C° 0 mm 2 mps 606 mmHg 25%
    17:00 +19°C° 0 mm 2 mps 606 mmHg 28%
    18:00 +19°C° 0 mm 1 mps 606 mmHg 31%
    19:00 +18°C° 0 mm 1 mps 606 mmHg 34%
    20:00 +16°C° 0 mm 1 mps 606 mmHg 37%
    21:00 +15°C° 0 mm 1 mps 606 mmHg 40%
    22:00 +15°C° 0 mm 1 mps 606 mmHg 42%
    23:00 +14°C° 0 mm 1 mps 605 mmHg 43%

    25 September, Monday

    Time Temperature Precipitation Wind Pressure Humidity
    00:00 +13°C° 0 mm 1 mps 605 mmHg 45%
    01:00 +13°C° 0 mm 1 mps 605 mmHg 46%
    02:00 +12°C° 0 mm 1 mps 605 mmHg 48%
    03:00 +12°C° 0 mm 1 mps 604 mmHg 49%
    04:00 +11°C° 0 mm 1 mps 604 mmHg 51%
    05:00 +11°C° 0 mm 1 mps 604 mmHg 53%
    06:00 +10°C° 0 mm 1 mps 604 mmHg 55%
    07:00 +13°C° 0 mm 1 mps 605 mmHg 47%
    08:00 +15°C° 0 mm 1 mps 606 mmHg 40%
    09:00 +18°C° 0 mm 1 mps 607 mmHg 33%
    10:00 +20°C° 0 mm 1 mps 607 mmHg 30%
    11:00 +20°C° 0 mm 2 mps 607 mmHg 27%
    12:00 +21°C° 0 mm 2 mps 607 mmHg 24%
    13:00 +23°C° 0 mm 2 mps 607 mmHg 22%
    14:00 +23°C° 0 mm 2 mps 607 mmHg 21%
    15:00 +24°C° 0 mm 2 mps 607 mmHg 19%
    16:00 +21°C° 0 mm 2 mps 606 mmHg 23%
    17:00 +19°C° 0 mm 2 mps 606 mmHg 26%
    18:00 +18°C° 0 mm 1 mps 605 mmHg 29%
    19:00 +18°C° 0 mm 1 mps 605 mmHg 33%
    20:00 +16°C° 0 mm 1 mps 605 mmHg 37%
    21:00 +15°C° 0 mm 1 mps 605 mmHg 40%
    22:00 +14°C° 0 mm 1 mps 605 mmHg 42%
    23:00 +14°C° 0 mm 1 mps 604 mmHg 44%

    26 September, Tuesday

    Time Temperature Precipitation Wind Pressure Humidity
    00:00 +13°C° 0 mm 1 mps 604 mmHg 46%
    01:00 +13°C° 0 mm 1 mps 604 mmHg 46%
    02:00 +12°C° 0 mm 1 mps 604 mmHg 46%
    03:00 +12°C° 0 mm 1 mps 603 mmHg 46%
    04:00 +11°C° 0 mm 1 mps 603 mmHg 46%
    05:00 +11°C° 0 mm 1 mps 603 mmHg 46%
    06:00 +11°C° 0 mm 1 mps 603 mmHg 46%
    07:00 +13°C° 0 mm 1 mps 604 mmHg 40%
    08:00 +16°C° 0 mm 1 mps 605 mmHg 34%
    09:00 +18°C° 0 mm 2 mps 606 mmHg 29%
    10:00 +20°C° 0 mm 2 mps 606 mmHg 26%
    11:00 +21°C° 0 mm 2 mps 606 mmHg 24%
    12:00 +22°C° 0 mm 3 mps 606 mmHg 22%
    13:00 +24°C° 0 mm 3 mps 606 mmHg 21%
    14:00 +24°C° 0 mm 3 mps 606 mmHg 20%
    15:00 +25°C° 0 mm 3 mps 605 mmHg 20%
    16:00 +22°C° 0 mm 3 mps 605 mmHg 22%
    17:00 +20°C° 0 mm 2 mps 604 mmHg 25%
    18:00 +18°C° 0 mm 2 mps 603 mmHg 28%
    19:00 +17°C° 0 mm 2 mps 603 mmHg 30%
    20:00 +17°C° 0 mm 2 mps 603 mmHg 31%
    21:00 +16°C° 0 mm 1 mps 603 mmHg 33%
    22:00 +15°C° 0 mm 1 mps 603 mmHg 33%
    23:00 +15°C° 0 mm 1 mps 603 mmHg 34%
    Show more